Wind_Speed
12 12 10 8 8 8 8 9 7 6 5 6 7 6 5 5 5 4 3 4 4 3 2 2 2 2 5 14 19 15 14 15 12 11 10 11 12 12 12 12 11 10 10 9 9 9 9 9 9 8 8 8 8 9 8 8 8 8 7 7 7 6 6 5 5 4 3 3 3 3 2 2 1 1 1 0 0 1 0 1 1 1 2 3 3
12 13 10 9 9 8 8 8 7 6 6 5 6 5 5 5 5 4 3 3 3 4 4 3 2 1 3 9 17 15 15 16 12 12 12 12 11 12 11 11 11 10 9 9 9 8 8 8 8 8 8 7 8 8 8 7 7 7 7 7 6 6 6 5 5 4 3 3 3 3 3 3 3 3 2 2 2 2 2 2 3 3 3 4 4
12 13 11 9 9 8 8 7 6 6 5 5 6 6 5 6 4 3 3 3 3 4 4 3 2 1 2 3 12 16 17 15 14 13 13 13 12 12 12 11 12 10 9 9 9 9 8 8 8 7 7 7 7 7 7 7 7 7 7 7 6 6 6 5 5 5 4 3 3 3 3 3 3 3 4 4 4 4 4 4 5 5 5 5 6
13 13 11 9 9 8 9 7 7 7 6 6 6 5 5 5 4 2 2 3 2 2 4 3 1 0 0 1 1 13 20 15 16 16 13 13 12 12 13 12 11 10 9 9 8 9 8 8 8 7 7 7 7 6 6 6 6 6 6 7 6 7 6 6 6 6 5 4 4 4 4 4 4 4 4 5 5 5 5 6 6 6 6 6 6
13 12 11 11 10 9 10 8 7 7 5 6 5 4 3 3 3 2 2 3 3 2 3 5 2 1 1 3 5 8 20 17 17 18 14 14 13 12 13 12 11 10 9 8 8 8 8 8 8 8 8 7 7 6 6 6 6 6 6 7 7 7 7 7 7 7 6 6 5 5 5 5 4 4 5 5 6 6 6 6 6 6 6 6 6
13 11 11 11 11 10 10 9 7 6 5 5 4 2 2 3 3 3 2 3 4 3 2 4 2 0 2 1 4 6 14 20 19 18 15 14 13 12 13 12 11 9 9 9 8 9 8 8 8 8 8 8 7 7 7 7 6 6 6 7 7 7 7 7 7 7 7 6 6 6 6 6 6 5 6 6 6 7 7 8 8 8 7 7 6
14 13 11 10 11 11 10 9 7 6 7 6 3 1 1 2 3 4 3 3 3 2 3 4 3 2 0 3 4 8 10 22 21 19 16 14 13 12 13 12 11 9 8 9 9 10 9 9 9 9 9 8 8 8 8 7 7 7 7 7 7 7 7 8 8 7 7 7 7 7 7 7 7 7 7 7 7 8 9 9 9 9 8 8 7
14 14 12 9 10 11 10 9 9 8 6 5 5 3 3 4 3 3 2 2 3 2 3 5 3 2 2 3 5 8 16 25 20 19 16 13 12 12 12 11 10 9 8 8 9 10 10 10 9 9 9 8 9 8 8 8 8 7 7 7 7 7 8 8 8 8 8 8 8 8 8 7 7 8 8 8 9 9 10 10 10 10 9 9 9
14 15 14 10 9 11 11 10 9 8 6 6 6 5 4 4 4 3 3 3 4 4 5 6 4 3 2 1 5 8 20 24 19 18 15 13 13 12 12 11 10 10 9 8 8 9 10 10 10 9 9 9 9 8 8 8 8 8 8 8 7 8 9 8 8 8 8 8 8 8 8 8 8 8 8 9 10 9 9 9 10 10 9 9 9
16 15 16 12 8 10 10 10 9 7 7 7 5 4 4 4 4 5 4 3 3 5 7 6 3 3 1 0 2 7 15 21 18 16 14 13 13 11 12 12 10 10 9 9 8 8 9 10 10 9 9 9 9 9 8 9 9 9 8 8 8 8 9 9 9 8 8 8 8 9 9 9 9 10 10 10 9 9 9 9 9 8 8 8 8
17 15 16 14 9 9 9 9 9 7 8 8 6 5 5 5 5 5 5 3 3 5 8 8 5 4 1 1 3 6 9 17 18 15 13 12 13 12 12 12 11 11 10 9 9 7 7 8 9 10 9 9 8 8 8 9 9 10 9 8 8 8 8 8 8 8 8 8 8 8 9 9 8 9 10 9 7 8 8 8 7 7 7 8 8
18 16 16 16 12 10 9 9 9 9 8 8 7 7 6 6 6 5 5 5 5 6 9 9 7 7 4 2 4 5 6 11 14 14 12 12 13 12 12 14 13 12 12 11 9 7 7 7 8 8 9 9 9 8 8 8 8 9 9 8 8 7 7 7 6 6 7 6 6 6 6 6 6 7 7 7 7 8 7 7 6 7 7 8 8
17 18 17 17 14 10 10 9 9 9 9 7 7 6 6 8 7 6 6 7 7 8 8 8 7 8 6 2 4 5 6 8 10 12 13 13 13 13 14 16 15 14 13 12 11 9 7 7 7 6 7 8 9 9 8 7 7 7 8 8 7 6 6 6 5 5 5 5 5 5 4 4 4 5 5 5 5 5 5 5 5 5 6 6 7
16 18 17 17 16 12 11 11 10 10 9 8 7 6 6 8 8 7 7 7 7 9 9 7 7 9 7 3 2 4 5 6 8 11 13 13 13 16 17 17 18 16 15 13 12 9 8 7 6 5 6 6 7 8 7 6 6 6 6 6 6 6 5 4 4 4 3 3 3 3 3 3 3 3 2 1 1 1 2 2 2 2 2 3 4
15 18 17 17 17 15 13 12 12 10 10 9 8 7 7 8 8 7 7 7 6 8 9 7 7 8 7 3 1 2 2 5 8 9 12 13 14 18 19 19 20 18 16 15 13 11 9 8 7 6 6 6 6 6 5 4 4 5 5 5 6 6 5 5 4 4 3 2 2 2 1 1 0 1 2 3 3 3 3 3 3 3 2 3 3
16 18 18 18 18 18 15 14 13 11 11 11 9 9 8 9 9 8 9 9 8 8 9 9 7 6 6 2 2 3 0 6 9 8 11 14 14 18 19 19 20 20 17 15 14 13 12 10 8 7 7 6 5 4 4 4 3 4 4 4 5 5 6 6 5 5 4 4 4 4 3 3 4 5 5 5 5 5 5 5 5 5 5 4 4
16 18 19 19 18 18 18 16 15 13 13 12 10 10 9 10 11 11 10 10 9 9 9 10 9 6 6 4 3 2 2 4 5 5 8 13 14 18 21 20 19 20 19 17 16 15 13 12 10 9 8 7 4 3 4 4 4 4 4 3 4 5 6 7 6 5 5 5 5 5 4 5 5 6 5 5 5 5 5 5 4 4 4 4 4
17 19 19 20 19 18 19 17 16 15 14 13 11 11 10 10 12 12 11 9 10 11 10 10 10 7 6 6 3 2 3 4 4 2 3 9 17 22 22 19 18 20 20 18 16 14 13 13 13 11 9 8 6 4 3 4 4 3 3 4 4 4 6 7 7 6 5 5 5 5 5 5 5 5 5 4 4 4 4 4 4 4 3 3 3
19 20 20 20 20 19 19 18 17 16 15 14 12 12 11 10 11 12 12 10 10 13 11 10 11 8 6 6 3 1 1 4 4 3 3 6 16 22 20 17 15 16 19 17 14 12 12 13 13 12 10 9 7 4 2 2 3 3 2 3 3 3 5 6 6 6 5 5 5 5 5 5 5 5 4 4 4 4 4 4 4 4 4 4 4
22 22 21 21 21 21 19 18 18 16 15 14 12 12 11 10 12 12 12 12 12 13 12 12 12 10 10 9 5 2 2 4 3 4 4 3 8 13 17 16 13 14 15 15 14 12 14 15 13 14 11 9 8 5 2 2 2 4 3 3 3 3 4 4 5 5 5 4 4 3 4 4 4 4 4 4 4 4 4 4 5 5 5 6 5
23 23 23 22 22 22 20 20 20 17 16 15 13 13 12 12 13 14 14 14 14 13 11 14 13 10 13 12 7 5 4 3 3 4 5 4 3 5 11 13 11 13 15 15 16 14 15 15 15 15 13 10 10 6 4 2 2 4 5 5 4 3 4 4 4 4 4 3 2 2 2 2 2 2 3 3 3 4 5 5 6 6 6 7 7
24 25 25 24 24 23 21 21 22 20 17 15 13 14 14 14 14 15 15 14 15 13 10 13 13 10 13 14 10 7 5 3 3 4 5 4 3 4 12 14 11 13 15 16 18 16 16 17 17 15 12 11 11 9 7 5 3 3 5 6 5 5 4 4 4 4 3 3 2 1 1 0 1 1 2 2 3 4 5 6 6 7 8 8 8
25 25 26 26 25 25 23 22 22 22 20 17 15 15 15 15 15 16 16 14 14 14 11 12 12 11 14 15 13 10 7 7 7 6 5 4 3 2 9 15 15 15 14 13 17 20 17 17 17 13 12 13 13 11 11 8 6 5 5 6 5 5 6 5 5 5 4 4 3 3 3 3 3 3 3 4 4 5 6 6 7 8 8 9 10
27 26 27 28 27 27 25 23 23 23 22 20 16 15 16 16 16 16 16 14 14 15 14 12 11 13 15 13 13 13 11 10 9 7 7 6 6 4 4 9 11 13 12 11 17 22 19 15 14 13 14 15 14 13 12 10 8 7 6 6 6 6 7 7 7 7 6 6 5 5 5 5 5 5 5 6 6 6 7 8 9 9 10 11 11
31 29 29 29 28 28 27 25 25 25 23 21 19 17 16 16 17 17 17 15 15 15 16 14 12 14 15 11 12 15 13 11 10 8 7 7 8 7 5 5 8 10 11 13 17 21 19 16 13 14 16 17 15 14 13 11 10 8 7 7 7 7 7 7 7 7 7 7 7 7 7 7 8 8 7 7 7 8 8 9 10 10 11 11 11
33 32 30 29 29 29 28 27 26 25 23 22 21 20 18 17 18 18 18 17 17 17 16 15 13 14 15 12 12 17 15 11 12 11 9 10 11 10 6 3 7 12 11 12 16 17 19 17 14 14 17 18 18 16 15 13 11 9 9 8 9 9 9 8 8 7 7 8 9 9 10 10 10 10 9 9 9 9 10 10 10 10 10 10 10
32 32 30 28 29 29 28 27 26 25 23 23 23 21 20 19 19 19 20 18 17 18 17 16 15 16 17 14 13 17 17 12 13 13 12 13 15 14 10 3 4 7 7 10 14 15 18 18 16 17 18 18 20 19 17 16 13 11 10 10 11 12 11 9 9 8 8 9 9 10 11 12 12 12 11 11 11 11 11 11 10 10 10 10 10
30 31 30 28 28 29 29 28 27 26 24 24 23 22 21 21 20 20 21 19 18 19 20 18 17 18 19 17 15 17 18 14 14 15 14 15 16 16 16 11 6 3 3 6 8 13 18 18 16 20 22 21 21 21 20 17 15 12 12 12 12 13 13 11 10 10 9 10 10 11 12 13 14 14 14 13 13 13 13 12 11 10 11 11 10
30 30 30 29 29 29 30 29 28 28 26 25 25 24 23 23 22 21 21 21 19 19 22 21 18 18 20 20 19 19 19 16 15 17 16 16 16 16 18 18 13 7 3 4 6 11 17 18 17 18 21 25 23 22 22 19 15 13 13 13 12 13 14 12 11 11 11 12 12 12 13 13 14 15 15 15 14 14 14 13 12 11 12 11 11
31 30 30 29 29 30 31 31 30 30 28 27 26 26 25 24 24 23 22 22 21 20 22 22 20 19 20 21 21 22 21 18 15 16 17 17 16 16 18 19 18 13 8 5 6 12 17 17 17 16 18 25 25 22 22 19 16 15 15 14 13 13 13 12 12 12 12 13 13 13 14 14 14 14 15 15 15 15 14 13 12 12 12 12 11
31 31 31 30 30 31 32 32 31 31 30 29 28 27 27 26 26 26 24 23 22 22 23 23 21 21 21 21 22 23 24 21 17 13 15 18 18 17 18 18 18 18 15 9 4 11 17 16 17 16 16 23 26 23 21 19 18 18 17 16 15 14 13 13 13 12 13 14 14 14 14 13 14 14 14 14 14 14 14 13 13 13 13 12 12
31 31 32 33 33 32 33 33 32 32 31 31 30 29 29 28 28 27 27 26 25 24 24 24 24 23 23 23 22 24 24 23 21 16 13 17 19 19 19 19 18 19 19 14 7 9 15 16 16 17 17 21 26 25 22 20 19 19 18 17 16 14 14 14 14 14 15 14 15 15 15 14 13 13 13 14 14 14 14 13 13 14 14 13 12
32 31 31 33 34 34 33 33 33 33 32 32 31 31 31 30 30 29 28 28 27 26 26 27 27 26 25 25 24 24 24 24 24 21 16 16 19 20 21 21 21 20 20 19 14 11 14 15 13 13 16 20 26 26 23 21 19 19 18 17 16 16 16 17 18 17 16 16 16 16 15 14 12 12 12 13 13 13 13 13 13 14 14 13 12
34 34 33 32 34 35 34 34 34 34 33 33 32 32 33 32 32 31 29 29 29 28 28 28 29 29 27 27 27 25 24 24 25 24 21 18 19 22 23 23 24 24 23 22 19 15 16 17 13 10 15 22 24 24 23 21 20 20 20 19 18 17 17 18 19 19 17 17 16 15 14 13 13 12 12 12 12 13 13 13 14 14 14 14 13
34 35 35 33 33 35 36 35 34 35 34 34 34 34 34 34 34 33 32 31 31 31 31 30 31 31 29 29 29 28 26 25 26 27 26 23 22 22 24 25 25 25 25 24 23 19 18 20 18 13 16 22 23 22 22 21 20 21 21 19 19 18 17 17 18 19 18 15 14 13 13 14 13 12 12 12 12 13 14 15 15 15 14 14 13
34 35 36 35 34 34 36 37 36 36 36 36 36 36 36 36 36 35 34 33 33 32 33 33 32 32 32 31 31 30 29 28 27 29 29 28 26 25 25 26 27 27 26 26 26 24 20 20 22 20 18 20 20 20 21 21 20 21 21 19 19 19 17 16 16 16 16 15 14 14 14 14 13 13 12 13 13 14 15 15 15 14 14 13 12
35 35 35 36 36 35 36 37 38 39 38 38 38 38 38 38 37 37 36 35 34 34 34 34 34 34 34 34 33 32 31 30 29 30 31 32 31 29 27 28 29 29 28 27 27 26 23 22 23 23 20 19 19 19 20 22 22 21 20 19 19 18 17 16 15 15 15 16 16 16 15 15 15 14 14 13 13 14 14 14 14 14 13 12 11
36 35 35 36 37 38 38 38 39 40 40 39 39 39 39 38 38 37 37 36 36 35 35 35 36 36 36 36 35 33 33 33 33 32 33 33 34 33 31 30 30 30 30 29 28 27 27 26 24 23 22 21 21 20 21 23 23 23 22 20 19 18 18 17 17 17 18 18 17 16 16 17 17 16 14 14 13 13 13 13 14 13 13 12 10
36 36 36 37 38 39 40 40 40 40 41 41 40 40 39 38 38 38 37 37 36 36 36 36 37 37 37 37 37 36 36 36 36 36 35 35 35 35 34 33 31 31 31 31 30 28 29 28 26 25 24 22 21 22 22 23 24 24 23 22 22 21 20 20 20 20 19 20 19 18 16 16 16 15 14 14 14 13 14 14 14 14 12 11 10
38 38 37 38 39 40 40 41 41 40 40 41 40 40 39 39 38 38 38 37 37 37 36 37 38 39 39 39 39 39 39 39 39 39 38 37 36 35 35 34 32 32 32 31 30 30 29 28 27 27 26 24 22 20 20 23 25 25 25 25 24 24 23 23 24 23 22 22 22 20 17 15 15 15 15 15 15 14 14 14 14 13 12 11 11
40 39 38 38 39 39 40 41 42 41 40 40 41 40 41 40 39 39 38 38 38 37 37 36 37 38 40 40 40 41 41 41 40 40 40 40 38 37 36 35 33 32 33 32 31 30 29 27 27 27 25 25 25 22 21 25 28 28 27 26 24 23 23 23 24 24 23 23 23 21 19 17 16 15 15 16 16 15 14 13 12 12 11 11 12
40 40 39 38 38 39 40 40 40 40 40 40 41 42 42 42 41 39 38 38 38 38 38 37 37 38 39 41 41 42 42 42 41 41 41 41 41 40 39 37 36 35 34 32 32 32 29 27 27 26 24 25 28 28 27 28 29 28 27 27 26 24 21 19 19 21 22 23 23 22 21 19 17 16 16 16 15 14 14 12 11 11 11 12 12
39 39 40 39 38 38 39 40 39 40 41 41 42 43 43 43 42 40 39 38 39 39 39 38 38 39 39 40 41 41 41 42 42 42 42 42 42 42 40 39 39 39 37 35 33 33 31 29 28 28 27 27 30 32 31 29 28 28 29 29 28 26 23 18 16 17 21 22 23 23 22 20 19 18 17 16 15 15 14 13 11 11 11 12 12
39 39 40 40 39 38 38 40 40 40 42 43 43 43 44 45 44 43 40 39 39 39 39 39 39 39 39 39 39 39 40 41 42 42 43 43 43 43 42 41 41 41 41 40 37 36 35 32 30 30 31 30 29 31 33 31 30 31 30 30 30 29 27 23 20 20 21 22 23 24 23 21 20 20 19 18 16 15 13 13 13 12 12 12 11
39 40 40 40 40 38 37 38 40 42 42 44 44 45 45 46 46 45 43 40 39 39 40 40 40 39 39 38 38 38 38 39 41 42 43 43 43 43 43 43 43 43 43 43 42 41 39 37 34 35 36 34 31 33 35 34 33 31 30 31 32 31 29 28 28 27 24 22 23 24 24 23 22 21 21 18 15 14 13 14 14 14 13 12 10
39 39 40 39 40 40 39 38 39 42 42 43 45 46 46 46 47 47 46 42 40 40 40 41 41 40 39 38 37 38 38 39 40 41 42 42 42 43 44 45 45 44 44 44 45 44 42 40 39 39 39 37 36 37 36 35 34 34 33 33 33 32 32 31 31 30 26 24 24 23 21 23 22 21 20 17 14 14 15 13 13 13 13 12 10
40 39 39 39 40 41 41 39 38 40 42 43 45 46 47 47 47 48 47 44 41 39 40 40 41 40 40 39 39 39 39 39 40 40 41 41 41 42 45 46 47 46 45 46 47 47 46 44 44 43 42 40 39 38 36 36 36 36 35 35 34 34 33 30 28 27 26 25 25 23 21 22 22 21 20 17 15 16 15 12 11 12 12 12 10
38 38 38 39 40 40 41 40 39 39 39 40 43 45 46 46 46 47 48 45 41 39 39 39 39 39 39 39 39 39 40 40 40 39 40 40 41 41 43 45 47 46 47 49 49 49 49 48 48 47 44 41 40 39 38 37 37 36 34 32 32 31 29 24 23 24 25 25 26 26 22 21 21 21 20 18 17 17 16 13 11 12 13 12 10
35 36 38 39 39 39 39 39 41 40 38 36 38 41 44 44 45 46 47 45 42 40 40 38 37 38 38 39 40 40 40 40 40 40 39 39 41 42 42 42 43 44 47 49 48 48 50 50 50 49 45 42 40 39 39 38 37 36 33 30 29 29 27 21 18 22 26 27 28 28 25 22 21 21 20 19 19 19 16 14 13 12 13 13 11
35 35 36 36 36 36 37 38 39 40 38 35 34 34 37 41 44 45 45 43 42 41 39 37 37 37 38 39 40 41 41 40 39 39 39 39 41 42 41 40 39 42 46 45 42 44 47 48 49 49 46 44 42 40 39 39 38 37 36 35 32 31 29 24 21 22 24 28 30 29 25 23 22 22 21 18 17 18 17 14 13 14 14 14 13
34 33 31 31 32 33 34 36 37 37 36 35 33 32 31 34 40 44 44 42 41 40 38 36 37 38 39 39 39 41 42 41 39 39 39 41 43 42 41 39 38 41 45 43 41 43 43 44 47 49 48 47 45 42 40 39 38 38 39 39 37 35 33 29 26 21 15 21 31 31 26 24 24 24 24 17 11 13 17 16 13 15 15 15 14
Wind_Direction
179 185 179 168 165 161 156 156 153 146 145 137 122 116 115 117 113 98 115 136 145 164 161 141 120 89 140 168 176 179 172 161 144 142 147 148 148 149 154 155 155 159 162 166 170 172 169 166 165 167 168 169 170 166 162 162 162 159 154 152 149 148 149 149 151 150 155 162 165 175 183 183 187 165 152 186 122 57 356 323 313 319 330 331 330
184 186 175 164 164 156 153 151 143 146 148 136 129 125 124 122 109 94 107 122 134 157 164 161 181 91 81 162 177 180 175 165 150 147 148 145 144 148 155 156 155 161 167 169 174 178 177 175 172 173 175 175 177 174 169 171 175 174 171 169 168 167 167 166 168 170 176 185 187 203 214 211 222 221 224 250 263 276 280 285 287 297 310 309 309
179 178 165 159 160 151 155 158 140 141 139 130 139 131 127 132 127 120 122 115 112 139 165 169 181 222 357 175 178 182 182 171 160 155 147 144 141 146 154 156 157 161 170 175 178 181 182 182 182 180 181 182 183 180 176 178 185 185 182 183 185 185 186 187 186 187 194 205 208 215 224 225 239 239 239 254 260 269 274 277 284 291 297 301 303
167 166 159 158 157 149 160 170 147 140 138 132 140 131 128 141 144 151 135 111 99 122 165 163 138 332 322 14 131 181 184 176 166 159 147 145 141 144 150 153 159 162 170 179 182 186 187 187 190 189 188 189 187 184 182 188 193 193 192 192 195 197 202 206 200 199 205 213 218 221 227 230 241 245 245 252 255 265 275 280 283 288 293 298 302
159 160 158 158 158 159 165 169 155 146 145 139 140 136 136 142 144 164 139 120 107 93 156 165 140 13 323 332 3 158 172 176 171 160 148 147 142 140 144 148 157 160 168 179 185 191 193 193 194 195 197 195 192 189 187 192 199 201 204 204 206 207 210 216 212 210 215 220 225 228 230 232 238 246 250 252 256 264 273 281 285 290 295 298 303
153 153 157 161 162 165 164 163 159 151 149 151 148 142 152 133 133 155 140 122 116 90 157 182 172 288 326 325 37 86 158 173 171 160 149 147 141 136 140 142 147 152 163 175 184 191 195 198 198 200 201 200 198 196 195 196 200 208 213 211 214 215 215 220 222 222 224 226 232 236 238 240 242 248 251 252 260 269 273 277 281 286 291 294 300
162 157 157 164 165 166 166 164 168 163 157 166 176 175 171 148 132 144 132 120 139 127 164 189 179 183 260 129 53 30 144 167 164 153 144 140 139 139 140 139 138 139 152 167 182 190 194 199 201 203 202 204 205 203 202 203 205 214 220 220 217 218 222 226 227 228 229 233 236 240 244 245 248 251 253 254 258 266 272 275 277 279 280 283 289
176 171 165 168 172 174 174 169 174 177 166 171 186 191 192 177 144 143 149 139 170 179 175 191 181 175 194 143 16 33 138 158 157 146 138 131 135 143 145 142 140 139 142 156 172 182 189 196 198 199 201 206 209 207 208 210 212 214 221 226 220 217 226 230 230 230 232 238 240 242 246 249 250 251 252 257 260 265 273 277 279 279 278 278 281
183 179 173 170 176 179 178 173 178 183 175 182 187 187 200 185 157 168 182 142 161 174 164 175 173 182 199 95 14 67 133 150 150 142 138 130 132 142 149 145 141 143 144 148 158 169 179 186 189 193 197 203 207 207 208 213 216 217 222 227 224 223 230 235 235 233 236 241 244 246 247 248 250 252 259 264 265 266 271 278 282 283 279 278 281
185 184 179 172 178 183 182 183 189 192 184 188 188 186 204 193 168 173 177 147 153 167 162 163 164 176 183 50 56 86 130 148 146 141 139 134 133 138 148 146 139 143 149 150 152 163 173 178 183 186 190 195 199 202 205 212 216 218 222 225 227 230 235 241 241 240 242 246 252 254 253 253 255 259 267 272 272 273 275 279 284 286 284 284 285
186 187 181 173 182 191 189 192 199 200 190 189 191 193 195 183 171 169 168 166 161 168 172 172 181 190 179 150 129 90 123 148 147 145 145 145 142 141 149 150 145 143 147 152 151 159 169 172 177 181 184 186 189 195 201 208 209 212 218 222 228 233 237 242 246 249 251 253 259 261 259 258 261 266 271 275 279 281 281 283 288 291 292 291 288
188 188 183 177 182 192 191 191 198 202 196 196 200 201 195 183 180 177 173 174 174 173 174 174 182 187 184 153 133 112 123 144 150 153 154 160 157 153 157 155 155 151 145 147 147 149 157 164 169 174 181 185 187 191 196 201 200 203 211 219 226 232 238 243 246 253 257 257 261 263 260 260 265 272 275 273 273 275 278 282 287 287 286 289 290
192 190 188 184 182 191 199 194 197 201 198 205 206 202 200 193 190 191 184 176 181 178 172 178 173 163 165 172 158 152 145 149 163 165 162 168 170 171 167 162 162 157 147 144 142 138 142 157 165 166 176 184 189 191 194 201 201 201 205 211 220 224 232 241 241 246 253 253 255 257 252 250 254 259 266 271 273 276 279 281 280 281 281 286 293
198 194 195 191 185 192 205 203 206 204 199 208 211 198 189 187 186 187 183 174 184 182 176 185 176 164 166 162 168 175 173 180 182 178 175 173 176 177 171 166 167 159 150 147 143 140 141 147 153 155 167 179 186 187 188 196 202 204 203 202 208 211 214 226 227 221 229 232 228 229 231 238 249 256 271 283 300 312 304 297 288 285 286 297 310
204 199 199 198 192 192 201 208 214 210 203 208 210 198 186 185 185 186 183 179 188 186 184 193 182 176 171 146 204 184 213 235 213 200 192 180 174 170 162 161 166 162 155 153 152 153 156 152 150 154 167 176 177 177 180 188 200 202 199 192 191 191 191 193 190 184 184 179 170 169 169 161 139 83 70 78 79 63 51 53 61 58 50 35 15
207 202 201 203 198 195 201 210 213 211 209 210 208 205 201 195 195 198 187 181 192 194 196 202 191 181 178 159 152 138 344 246 226 224 204 187 175 165 158 156 161 164 162 163 164 165 169 164 160 168 175 172 164 172 188 197 208 198 185 177 179 178 175 174 172 167 162 148 136 133 122 104 98 93 85 81 79 74 67 64 62 58 55 50 41
208 205 204 206 203 199 205 212 211 211 214 213 210 209 209 203 201 203 189 180 194 195 195 203 196 189 189 166 110 137 231 210 200 226 202 188 175 158 156 157 159 165 168 170 171 171 172 170 173 180 182 179 166 170 199 209 215 200 183 177 178 177 171 168 169 161 150 138 125 120 112 101 96 92 88 83 79 76 70 64 61 55 53 45 39
209 208 206 206 206 204 206 212 213 213 214 215 214 208 206 206 203 201 191 186 195 193 196 201 192 187 184 167 149 217 224 157 149 206 176 169 167 156 153 155 157 164 170 174 174 173 171 171 179 184 180 180 176 170 192 208 209 193 183 181 171 169 168 164 164 156 144 131 115 106 99 92 92 90 88 85 78 73 67 62 55 46 40 33 29
210 210 210 208 208 208 209 212 213 213 212 215 217 209 205 205 202 198 192 189 193 193 194 183 176 187 190 183 203 282 148 147 158 176 116 132 156 155 155 158 158 165 173 178 178 175 170 164 171 179 176 175 179 187 179 154 171 177 173 176 167 159 162 162 158 149 138 124 106 97 89 85 86 84 82 75 68 61 51 45 37 31 24 17 13
212 211 210 209 209 210 211 211 212 213 212 215 217 206 201 202 198 196 194 195 198 197 194 185 184 196 199 196 214 227 142 127 137 156 137 120 146 152 160 168 174 177 177 183 189 185 174 164 166 175 179 181 189 205 197 133 157 185 185 183 181 168 165 164 157 150 137 123 105 92 83 79 75 70 68 58 52 45 35 31 24 17 14 7 4
212 210 210 210 209 211 211 209 210 214 213 214 217 206 202 205 199 194 194 199 204 199 194 200 200 195 194 194 195 198 164 111 113 139 130 140 155 152 166 173 183 186 183 186 193 190 177 170 170 177 182 190 200 209 209 198 179 190 194 194 194 188 184 180 170 165 156 146 137 121 93 76 67 54 47 33 25 18 12 10 5 1 357 352 350
209 208 210 210 209 211 212 209 209 214 215 213 214 206 201 203 199 195 197 203 206 200 194 200 199 194 196 191 179 183 176 156 176 158 127 137 154 162 176 180 187 194 191 191 194 189 180 179 179 182 187 194 204 209 205 210 215 210 202 193 195 198 198 197 193 194 192 194 200 201 233 300 329 339 341 339 340 338 338 340 339 336 334 332 331
207 207 209 210 209 210 214 213 210 213 216 215 213 205 198 198 197 196 201 206 205 199 195 196 194 195 200 193 182 183 183 187 197 188 170 162 159 166 180 181 185 194 193 196 200 190 181 187 191 194 198 199 206 208 206 215 222 224 214 205 208 212 213 214 212 216 217 221 230 240 257 272 281 289 295 297 302 308 312 315 315 313 313 312 310
206 205 207 210 210 210 213 214 212 212 214 214 214 206 199 199 198 199 202 204 203 200 198 197 189 187 193 194 190 189 189 194 204 203 199 198 194 200 194 181 183 191 187 183 192 191 190 198 204 210 208 202 206 207 210 220 224 229 232 230 232 231 231 228 225 229 231 236 241 248 259 268 275 281 286 293 297 303 307 305 304 303 301 302 302
203 204 205 207 210 210 211 213 212 212 211 211 211 208 203 202 201 202 202 200 199 201 203 204 192 181 185 192 196 194 192 199 212 215 211 207 200 203 220 201 176 179 184 178 181 192 205 211 208 214 215 209 208 211 217 224 227 234 243 245 240 236 239 238 237 242 245 251 254 256 264 269 275 280 284 292 298 303 307 305 303 302 301 302 302
203 205 205 206 210 211 212 213 212 212 210 208 209 209 207 206 205 203 203 202 202 202 206 209 202 188 186 192 198 195 192 201 213 218 217 206 197 197 209 198 166 171 182 187 184 190 205 210 207 213 217 215 214 216 224 228 231 238 242 247 246 239 240 240 242 251 254 261 264 264 270 274 277 282 285 291 296 300 304 304 303 303 303 305 304
204 206 205 205 210 212 213 214 213 212 211 208 210 210 207 207 208 205 205 206 204 203 206 210 206 197 192 195 202 197 194 203 212 216 224 218 211 209 207 184 154 174 186 194 197 202 208 210 212 218 221 220 218 221 226 227 232 239 239 244 250 244 242 243 245 252 257 264 268 269 272 275 277 281 284 289 294 297 301 302 302 305 307 306 305
204 205 205 205 208 211 213 214 213 212 212 211 211 211 207 206 208 207 207 207 205 203 205 209 209 202 197 199 205 202 200 209 217 216 223 226 227 223 214 203 178 165 198 203 211 218 217 217 220 225 227 224 222 225 226 225 228 234 237 241 248 245 243 247 248 252 259 264 269 272 272 275 276 278 281 285 289 294 298 299 301 305 307 306 307
206 204 205 206 208 211 213 214 213 211 212 213 213 212 210 209 208 206 205 206 207 204 205 210 212 207 204 204 209 211 209 214 219 218 222 229 230 226 220 215 201 178 177 210 227 221 218 223 226 228 229 225 226 225 221 221 223 227 234 239 244 245 244 250 252 253 260 263 268 271 271 273 274 275 277 279 284 289 293 296 299 303 305 305 309
208 207 206 207 209 211 213 213 212 211 211 212 212 213 213 213 211 208 205 205 208 207 207 211 212 208 208 209 213 216 216 218 218 218 223 227 227 221 219 220 216 204 189 188 228 226 221 227 229 231 232 224 222 220 215 217 221 223 233 239 243 247 248 251 254 257 261 262 266 270 272 274 273 272 274 275 279 284 288 291 294 299 302 303 307
209 209 208 209 210 212 213 212 212 211 211 212 212 212 214 214 213 211 209 206 208 209 209 212 211 208 208 211 215 218 219 222 222 222 226 224 221 215 211 215 218 218 211 195 213 230 224 228 228 227 227 218 215 215 213 215 221 226 235 243 247 251 251 251 252 257 260 261 266 271 272 273 271 270 270 271 275 279 281 286 290 295 298 299 303
208 209 210 210 210 211 213 212 210 209 209 210 212 212 212 213 214 214 212 209 209 211 211 212 212 210 210 212 216 219 220 224 224 224 228 224 219 216 212 211 213 219 221 213 214 230 226 229 231 228 226 218 213 213 215 219 226 231 236 243 248 246 243 244 247 253 256 256 262 269 270 271 270 269 269 270 272 274 277 282 288 293 294 294 297
206 207 209 210 209 210 211 211 210 209 208 208 210 211 210 211 213 214 214 211 211 212 213 213 213 213 214 214 216 220 223 228 227 225 228 227 222 221 221 219 217 219 222 220 222 233 230 229 234 236 231 219 212 213 219 226 229 229 232 238 244 243 240 240 244 249 253 255 260 264 265 265 266 267 268 269 269 271 276 282 289 293 293 291 293
208 208 209 209 209 209 209 209 209 208 208 208 209 210 209 210 211 212 213 213 213 213 213 215 214 214 217 216 217 218 221 228 230 227 228 228 224 223 223 224 223 222 223 223 223 227 231 229 229 228 220 213 213 216 220 224 226 225 227 231 235 240 244 246 246 246 248 253 256 257 258 261 263 265 266 267 269 272 277 283 288 291 291 291 290
209 210 210 210 209 208 208 208 208 208 209 210 209 210 211 210 210 210 211 212 213 214 213 214 215 215 216 218 219 218 218 224 230 229 228 229 228 226 224 225 226 225 225 227 225 225 228 229 228 222 212 210 216 221 222 223 224 223 225 230 234 238 243 247 249 248 246 248 250 252 255 257 258 262 265 268 272 275 278 284 288 289 288 287 286
210 211 211 211 211 209 209 208 209 209 210 211 211 211 213 213 212 211 210 211 214 216 215 215 215 215 216 218 220 219 219 221 226 228 229 230 230 229 227 226 227 227 226 227 229 229 229 231 232 230 224 218 218 220 221 221 221 222 226 231 233 236 240 245 249 250 246 246 249 253 254 252 252 258 264 267 270 273 279 284 288 288 285 281 279
210 211 210 210 211 211 210 210 210 211 211 212 212 212 214 215 214 213 212 212 214 217 218 218 216 215 216 219 220 219 218 220 222 224 226 228 228 228 229 228 227 228 228 228 230 230 230 233 234 233 233 232 227 221 219 217 217 222 228 231 230 231 235 241 246 246 242 244 250 254 253 251 252 257 261 263 264 267 273 279 282 284 282 277 274
209 210 211 210 211 212 212 212 212 213 213 213 213 214 214 214 215 215 214 214 214 216 219 220 219 218 218 219 221 220 219 219 220 221 223 224 224 225 227 228 227 226 227 227 229 229 230 232 236 235 233 234 234 231 226 222 220 221 223 225 230 232 232 234 237 238 241 245 250 253 253 252 252 254 256 257 257 259 265 270 274 275 272 268 265
208 209 210 211 212 213 214 214 214 215 214 214 215 214 214 214 215 215 215 215 215 216 218 220 221 221 221 221 222 222 221 220 220 220 221 222 222 223 224 226 226 224 223 225 226 227 228 229 232 234 233 233 233 233 231 228 225 224 222 221 224 228 230 231 232 235 239 242 245 248 250 250 249 252 256 256 253 254 259 265 267 267 266 261 254
209 210 210 212 213 214 215 216 216 216 216 215 215 214 214 214 215 216 216 216 216 216 218 220 222 222 223 223 223 223 224 224 223 222 221 222 222 222 223 224 224 221 220 221 221 223 225 226 227 230 231 231 230 230 227 221 217 219 222 222 223 226 228 230 235 239 240 240 242 245 245 241 243 250 253 249 247 247 252 260 262 262 262 256 247
210 211 211 213 214 214 215 217 217 217 217 216 216 215 215 214 215 216 216 217 217 217 218 220 222 223 224 224 225 225 226 227 227 226 225 224 224 223 222 221 221 221 219 218 218 219 220 222 224 226 227 228 228 225 219 215 214 217 221 222 226 230 230 231 236 239 240 241 242 243 242 240 242 247 245 242 243 243 247 256 260 258 258 254 248
211 212 213 214 215 215 216 216 217 217 218 218 218 217 216 215 215 216 216 217 218 219 219 220 221 223 224 225 226 227 228 228 229 229 228 228 228 227 226 222 220 220 219 217 217 217 217 218 220 221 221 225 226 224 222 221 220 221 221 220 223 227 227 228 233 235 236 239 241 240 240 239 240 241 240 241 242 241 245 254 254 252 255 253 250
211 212 213 214 215 216 216 216 216 217 218 220 219 219 219 218 217 217 217 218 218 219 220 221 222 223 225 226 227 228 229 229 229 230 230 230 230 231 230 228 225 223 220 218 217 217 216 218 220 218 219 223 224 224 225 226 223 222 223 222 221 221 219 217 224 230 231 231 233 235 236 235 236 236 236 240 242 243 248 250 244 246 252 249 244
210 211 213 214 215 215 216 216 217 218 219 221 220 220 220 220 220 219 219 219 219 220 221 222 223 224 224 226 227 228 229 229 229 230 231 232 232 233 233 232 231 230 227 224 222 220 218 218 219 219 220 223 223 222 222 224 223 224 224 223 220 219 217 216 218 224 227 225 224 229 231 229 228 231 235 239 241 244 246 241 240 248 251 243 237
209 211 213 214 215 215 215 215 217 219 221 221 221 221 222 222 222 221 221 221 221 221 222 223 224 224 225 225 226 228 229 230 229 229 230 231 232 233 234 235 234 234 233 230 230 229 225 222 221 223 224 223 223 223 222 222 223 222 221 220 219 218 216 217 221 225 227 222 218 222 227 228 228 231 236 237 235 237 239 239 243 247 244 238 234
210 211 213 214 215 216 216 216 217 219 221 222 222 222 222 223 223 222 222 223 224 224 224 225 225 225 225 225 226 227 229 230 229 228 228 229 230 230 231 233 234 235 234 233 233 233 232 229 227 229 230 227 226 227 225 223 222 221 220 219 218 217 218 223 229 231 228 222 218 217 223 230 230 232 236 235 228 230 235 237 237 238 238 236 232
211 212 213 215 216 217 218 218 219 220 222 223 223 223 223 223 223 223 223 224 225 227 228 228 228 228 228 227 228 229 229 230 230 229 227 227 227 227 228 229 231 233 233 233 233 232 231 232 233 235 235 232 231 230 228 226 226 226 227 227 226 224 223 225 228 228 224 222 219 214 219 230 231 230 233 230 223 227 231 230 228 230 232 232 234
214 214 215 216 218 219 219 220 222 224 224 224 224 224 224 224 223 223 223 225 227 229 231 232 232 232 231 230 230 231 231 232 232 231 229 227 225 225 226 227 229 231 232 234 234 233 232 232 234 236 236 235 234 232 230 229 229 230 231 232 229 223 218 215 215 216 216 217 215 214 219 230 231 230 229 222 217 221 223 219 219 223 226 231 241
215 216 217 219 220 220 221 221 223 226 228 227 227 227 226 224 223 222 222 224 227 230 233 234 235 236 235 234 233 233 234 234 234 233 232 228 226 225 226 227 228 229 232 234 235 235 235 235 236 236 236 236 236 234 232 229 229 228 225 222 220 212 205 204 205 208 210 211 211 214 221 229 231 227 223 218 216 218 218 217 222 226 231 238 246
216 218 220 221 222 223 223 224 225 228 230 231 231 231 228 225 223 222 222 223 227 231 234 236 237 239 239 238 236 236 236 237 236 235 233 230 228 227 226 226 227 229 233 233 234 236 237 236 237 237 236 236 236 235 232 229 227 226 222 218 216 207 202 203 203 205 210 213 212 213 218 227 230 224 216 211 213 218 220 224 232 238 241 243 240
219 221 222 224 225 226 226 228 229 231 232 234 234 235 233 228 225 223 221 222 226 229 232 236 238 240 241 241 240 239 239 239 238 237 236 233 231 230 228 227 227 230 233 233 232 234 236 234 234 234 233 234 234 233 232 228 225 225 224 222 217 208 204 205 202 198 205 216 215 213 214 221 225 217 207 201 204 219 223 227 234 238 238 235 231
Height
849 850 851 852 853 853 854 854 854 855 856 856 857 857 858 859 859 860 860 860 860 860 859 858 859 859 860 861 861 862 862 863 863 864 864 864 865 866 866 867 868 869 870 871 871 872 872 872 873 873 874 874 875 875 876 877 877 878 878 879 880 880 881 881 881 882 882 882 883 883 883 883 883 883 883 883 882 883 883 882 882 882 882 881 881
849 850 851 852 852 853 853 854 855 855 856 856 857 857 858 859 859 859 860 860 860 860 859 859 858 859 860 861 861 861 862 862 863 864 864 865 865 866 867 867 868 869 870 870 871 872 872 873 873 874 874 874 875 875 876 877 877 878 878 879 879 880 880 881 881 881 882 882 882 882 882 882 882 882 882 882 882 882 882 882 882 882 882 881 881
848 849 850 852 852 853 853 854 855 855 856 856 857 857 858 859 859 859 860 860 860 860 859 859 859 859 859 861 861 861 862 862 863 863 864 865 865 866 867 868 868 869 870 870 871 872 872 873 873 874 874 874 875 875 876 877 877 877 878 878 879 879 880 880 880 881 881 881 881 882 882 882 882 882 882 882 882 882 882 882 882 882 881 881 881
848 849 850 851 852 852 853 854 855 855 856 856 857 858 858 859 859 859 859 860 860 859 859 859 859 859 858 860 861 861 862 862 863 864 865 865 865 866 867 868 869 869 870 870 871 872 872 873 873 874 874 874 875 876 876 877 877 877 878 878 878 879 879 879 879 880 880 880 880 881 881 881 881 881 881 881 881 881 881 881 881 881 881 881 880
848 849 850 851 851 852 853 853 854 855 856 856 857 857 858 858 859 859 859 860 860 859 859 859 859 859 858 859 860 861 862 863 864 864 865 865 866 867 867 868 869 869 870 870 871 872 872 873 873 874 874 875 875 876 876 876 877 877 877 877 878 878 878 878 878 879 879 879 880 880 880 880 880 880 880 881 881 881 881 880 880 880 880 880 880
848 849 850 851 851 852 853 853 854 855 855 856 856 857 858 858 858 859 859 860 860 860 859 859 859 859 859 859 859 861 862 862 864 864 865 866 866 867 867 868 869 869 870 870 871 871 872 873 873 874 874 874 875 875 876 876 877 877 877 877 877 877 877 878 878 878 878 879 879 879 879 879 879 880 880 880 880 880 880 880 880 879 879 879 879
847 848 849 850 851 852 853 853 854 854 855 855 856 857 857 858 858 859 859 860 860 860 860 859 860 860 860 860 860 861 861 861 864 865 866 866 866 867 867 868 868 869 869 870 870 871 871 872 873 873 874 874 874 875 875 876 876 876 876 876 876 877 877 877 877 878 878 878 878 879 879 879 879 879 879 879 879 879 879 879 878 878 878 878 878
846 848 848 849 850 851 852 853 853 854 855 855 855 856 857 858 858 859 860 860 860 860 860 860 860 860 860 861 861 861 861 862 864 865 865 866 866 867 867 868 868 869 869 869 870 870 871 871 872 872 873 873 874 874 875 875 875 875 876 876 876 876 876 876 877 877 877 877 878 878 878 878 878 878 878 878 878 878 878 878 877 877 877 877 877
845 846 848 849 850 851 851 852 853 853 854 855 855 856 856 857 858 859 859 860 861 860 860 860 860 861 861 861 862 862 862 862 864 864 865 865 866 867 868 868 869 869 869 869 869 870 870 870 871 872 872 873 873 874 874 874 875 875 875 875 875 875 876 876 876 876 877 877 877 877 877 878 878 878 878 878 877 877 877 877 876 876 876 876 876
844 846 847 848 849 850 851 851 852 853 854 854 855 856 856 857 858 858 859 860 860 860 861 861 861 861 862 862 862 863 863 863 863 864 865 865 866 867 868 869 869 869 870 870 870 870 870 870 871 871 872 872 872 873 873 874 874 874 874 874 874 875 875 875 876 876 876 876 877 877 877 877 877 877 877 877 877 877 876 876 876 876 875 875 875
843 845 846 848 848 849 850 851 852 852 853 854 854 855 856 857 857 858 859 860 860 860 861 861 861 862 862 862 862 863 864 864 863 863 864 865 866 867 868 869 869 869 870 870 870 870 870 870 870 871 871 871 872 872 872 873 873 873 874 874 874 874 875 875 875 876 876 876 876 876 877 877 877 877 876 876 876 876 876 875 875 875 875 875 875
843 844 846 847 848 849 850 851 851 852 853 853 854 855 856 856 857 858 859 859 860 860 861 862 862 862 862 862 863 863 863 864 864 864 864 864 865 866 867 868 869 869 870 870 871 871 871 871 871 871 871 871 871 871 872 872 872 873 873 874 874 874 875 875 875 876 876 876 876 876 876 876 876 876 876 876 876 875 875 875 875 875 875 874 874
842 843 845 846 847 848 849 850 851 851 852 853 854 855 855 856 857 858 858 859 860 860 860 862 862 862 862 862 863 863 863 864 864 864 864 864 864 865 866 867 868 869 869 870 870 871 871 871 871 871 871 871 871 871 871 871 872 872 873 873 874 874 875 875 875 875 876 876 876 876 875 875 876 875 875 875 875 875 875 875 874 874 874 874 874
841 842 844 845 846 848 848 849 850 851 852 852 853 855 855 856 856 857 858 859 859 860 860 861 861 861 861 862 863 863 863 863 864 864 864 864 864 864 865 866 868 868 869 870 870 870 871 871 871 871 871 871 871 871 871 871 872 872 872 873 874 874 874 875 875 875 875 875 875 875 875 875 875 875 875 875 875 875 875 874 874 874 874 874 874
840 841 842 844 845 846 847 848 849 850 851 851 852 854 855 855 856 856 857 858 859 859 860 860 860 861 862 864 864 864 865 863 863 864 864 864 864 864 865 866 867 868 868 869 869 870 870 870 870 870 871 871 871 871 872 872 872 872 872 873 873 873 874 874 875 875 875 875 875 875 875 875 875 875 875 875 875 875 875 874 874 874 874 874 874
838 840 841 843 844 845 846 847 848 849 850 850 851 852 853 854 855 856 857 857 858 858 859 860 860 861 862 864 864 866 868 865 862 863 863 864 864 864 864 865 866 867 867 868 868 869 869 869 869 869 870 871 871 871 871 872 872 872 872 872 872 873 873 874 874 874 875 875 875 875 875 875 875 875 875 875 875 875 875 875 874 874 874 874 874
837 838 840 841 842 844 845 846 847 848 849 849 850 851 852 853 854 855 856 856 857 857 858 859 859 860 860 862 864 867 867 862 862 863 863 863 865 864 864 865 865 866 867 867 867 868 868 868 869 869 869 870 871 871 871 871 871 872 872 872 872 873 873 873 874 874 874 875 875 875 875 875 875 875 875 875 875 875 875 875 875 874 874 874 873
835 837 838 839 841 842 843 844 845 847 848 848 849 850 851 852 853 854 855 855 856 857 857 858 859 859 859 859 861 863 861 860 863 864 862 862 864 864 864 864 865 866 866 867 867 868 868 868 869 869 869 870 870 871 871 871 871 871 872 872 872 872 873 873 874 874 875 875 875 875 875 875 875 875 875 876 875 875 875 875 875 874 874 874 873
833 835 836 838 839 840 841 843 844 845 846 847 848 849 849 851 852 853 854 854 855 856 856 857 857 858 858 858 858 858 858 859 861 863 864 864 863 864 864 864 864 865 866 866 867 867 868 868 869 869 870 870 870 871 871 871 871 871 871 872 872 872 873 874 874 875 875 875 875 875 875 875 875 875 876 876 875 875 875 875 875 874 874 874 873
831 833 834 836 837 839 840 841 842 843 845 846 847 848 848 850 851 852 853 853 854 855 856 856 856 856 856 857 858 858 858 858 858 860 863 865 865 864 864 864 865 865 865 866 866 867 867 868 869 869 869 870 870 871 871 871 871 871 871 872 872 873 873 874 874 875 875 875 875 875 875 875 875 875 875 875 875 875 875 875 875 874 874 874 873
830 831 832 834 835 837 838 839 840 841 843 844 845 847 847 849 850 851 851 852 853 854 855 855 855 855 855 856 857 857 857 858 858 858 859 863 865 864 864 865 865 865 865 865 865 866 867 868 869 869 869 869 870 870 870 870 871 871 872 872 872 873 873 874 875 875 875 875 875 875 875 875 875 875 875 875 875 875 875 875 875 874 874 874 873
827 829 830 832 834 835 836 838 839 840 841 843 844 845 846 847 848 849 850 851 852 853 853 854 854 854 854 855 856 856 857 857 858 858 858 860 862 863 863 863 864 864 864 864 865 865 866 867 868 868 868 868 869 869 869 870 870 871 871 872 872 873 873 874 874 875 875 875 875 875 875 875 875 875 875 875 875 875 875 875 875 874 874 873 873
825 827 829 830 832 833 835 836 837 838 840 841 842 844 845 846 847 848 849 850 850 851 852 853 853 853 853 854 855 855 856 857 857 858 858 858 859 861 861 862 862 863 863 864 864 864 866 866 867 867 868 868 868 868 869 869 870 870 870 871 872 872 873 873 874 874 874 874 874 874 875 875 875 875 874 874 875 874 874 874 874 874 873 873 873
823 825 826 828 830 831 833 834 836 837 838 839 841 842 843 845 846 846 847 848 849 850 851 852 852 852 852 853 854 854 855 856 856 857 857 857 858 859 860 861 862 862 862 863 863 864 865 865 866 866 867 867 867 867 868 868 868 869 869 870 870 871 872 872 872 873 873 873 873 874 874 874 874 874 874 874 874 874 874 874 873 873 873 873 872
821 822 824 826 827 829 830 832 833 835 836 838 839 840 842 843 844 845 846 847 848 849 850 851 851 851 852 852 853 853 854 855 856 856 857 857 857 858 859 860 861 861 862 862 863 864 864 865 865 865 865 866 866 866 866 867 867 868 868 869 869 869 870 870 871 871 872 872 872 872 873 873 873 873 873 873 873 873 873 873 873 872 872 872 871
817 819 821 823 825 826 828 830 831 833 834 836 837 839 840 841 842 843 844 845 846 848 848 849 850 850 851 851 852 852 853 854 855 855 856 856 857 858 858 859 860 860 861 861 862 862 863 863 863 863 864 864 865 865 865 865 866 866 867 867 868 868 869 869 869 870 870 870 871 871 871 871 872 872 872 872 872 872 872 872 871 871 871 871 870
815 817 819 821 823 824 826 828 830 831 833 834 835 837 838 839 840 841 842 843 844 846 847 848 849 849 850 850 851 851 852 853 854 854 855 855 856 856 857 859 861 861 860 860 861 861 861 861 862 862 862 862 863 863 863 864 864 865 865 866 866 867 867 868 868 869 869 869 869 870 870 870 870 870 871 871 871 871 871 870 870 870 870 869 869
813 815 817 819 821 822 824 826 828 829 831 832 834 835 836 837 838 839 840 841 842 843 845 846 847 848 848 849 850 850 851 852 853 853 854 854 855 855 855 856 860 862 862 861 860 859 859 860 860 860 860 860 861 861 862 862 863 864 864 864 865 865 866 867 867 867 867 868 868 868 868 868 869 869 869 870 870 870 869 869 869 869 868 868 868
812 814 815 817 819 820 822 823 825 827 829 830 832 833 834 835 836 837 838 839 840 841 842 844 845 846 847 847 848 849 849 850 851 852 852 853 853 854 854 854 856 859 861 862 860 857 857 858 858 858 859 859 859 860 861 861 862 862 862 862 863 864 865 865 865 866 866 866 866 866 866 867 867 867 868 868 868 868 868 868 867 867 867 866 866
810 812 814 815 817 818 819 821 822 824 826 828 830 831 833 834 835 836 836 837 838 839 840 842 843 844 844 845 846 847 847 848 850 850 851 851 851 852 853 853 853 855 857 860 859 855 855 856 855 856 856 856 857 858 859 859 860 861 861 861 861 862 863 863 864 864 864 865 865 865 865 865 865 866 866 866 867 867 866 866 866 866 865 865 865
807 809 811 813 814 816 817 818 820 822 824 825 827 829 830 831 832 834 835 836 836 837 839 840 841 842 842 843 844 844 845 846 847 849 849 849 850 850 851 851 852 852 853 855 856 854 853 853 853 854 854 854 856 856 857 858 858 859 859 859 860 860 861 861 862 862 863 863 863 863 863 863 864 864 864 865 865 865 865 864 864 864 864 864 863
804 806 808 810 812 813 814 816 817 819 821 822 824 826 827 829 830 831 832 833 834 835 837 838 839 840 840 841 841 842 843 845 845 846 847 848 848 848 849 849 850 851 851 852 853 852 851 852 852 852 852 853 854 855 855 856 857 857 857 857 858 858 859 859 860 860 861 861 862 862 862 862 862 862 862 863 863 863 863 862 862 862 862 862 862
801 803 805 806 808 810 811 813 814 816 817 819 821 822 824 825 826 828 829 831 832 833 834 835 836 837 838 838 839 840 841 842 843 844 845 846 846 846 847 847 848 849 849 849 850 849 850 850 850 850 851 851 851 852 853 854 854 855 855 856 856 856 857 857 857 858 859 859 859 860 860 860 860 861 861 861 861 861 861 860 860 860 860 860 860
797 799 801 802 804 807 808 810 811 812 814 815 817 819 820 822 823 825 826 827 829 830 831 832 833 834 835 836 837 838 839 840 841 842 843 843 844 844 845 845 845 846 847 847 847 848 848 848 848 848 848 849 849 850 850 851 851 852 853 853 854 854 855 855 855 856 856 857 857 857 858 858 859 859 859 859 859 859 859 858 858 858 858 858 858
794 796 798 800 802 803 805 807 808 809 811 812 814 815 816 818 819 821 822 823 825 826 827 829 830 831 832 833 834 835 837 837 838 839 840 841 841 842 842 843 843 844 844 845 845 845 846 846 847 847 847 847 847 847 848 849 849 850 850 851 851 852 852 853 853 853 854 855 855 855 856 856 856 856 857 857 857 857 857 857 856 855 855 856 856
791 792 795 797 799 800 801 803 804 805 807 808 809 811 812 813 815 817 818 820 821 822 823 824 826 827 828 829 830 832 833 834 835 836 837 838 838 839 839 840 841 841 842 843 843 844 844 844 845 845 845 845 845 846 847 847 848 848 848 849 849 850 850 851 851 851 851 852 852 853 853 853 853 853 854 854 855 855 855 855 854 854 853 853 853
787 789 791 794 795 797 798 799 800 801 802 804 805 806 808 809 811 813 814 816 817 818 820 821 822 823 824 825 826 827 829 830 831 832 833 834 835 835 836 837 837 839 840 841 841 842 842 842 842 843 844 844 844 844 845 845 846 846 846 847 847 847 848 848 848 849 849 850 850 850 850 851 851 851 851 851 852 852 853 853 853 852 852 851 851
783 786 788 789 791 792 793 794 795 797 798 800 800 802 804 805 807 809 810 812 813 815 816 817 818 819 820 820 822 823 824 825 826 827 828 829 831 831 832 833 834 835 837 838 839 840 840 840 840 841 841 842 842 842 842 843 843 843 844 845 845 845 846 846 846 847 847 848 848 848 848 848 848 848 849 849 849 850 850 850 850 850 850 849 849
780 781 783 785 786 787 789 790 791 793 794 795 797 798 800 802 804 805 807 808 810 811 812 813 814 815 816 817 817 818 819 820 821 822 823 825 826 827 828 829 831 832 834 835 836 837 837 837 838 838 838 839 839 839 840 841 841 841 841 842 842 842 843 843 843 844 845 845 845 845 846 846 846 846 846 847 847 847 848 848 848 848 848 847 847
775 777 778 780 781 783 785 786 787 789 790 792 793 795 797 799 800 801 803 804 806 807 808 809 810 811 812 812 813 813 814 814 816 817 819 820 822 823 825 827 828 829 830 831 832 833 833 834 834 834 835 836 837 837 838 838 838 838 838 838 839 839 840 840 840 841 842 842 842 843 843 843 844 844 844 844 844 845 845 846 846 846 845 845 845
770 772 774 776 777 778 780 782 783 785 786 787 789 791 793 794 796 797 799 800 801 802 804 805 806 806 807 808 808 808 809 810 811 813 815 817 818 819 821 823 825 826 826 827 828 828 829 830 830 831 832 832 833 834 834 833 833 833 834 835 836 836 837 837 837 838 839 840 840 840 841 841 841 841 841 841 842 842 843 843 843 844 843 844 843
766 768 770 772 773 774 776 777 779 781 782 783 784 786 788 789 792 793 794 796 797 798 799 800 801 802 802 803 803 804 805 806 808 810 811 813 814 815 817 819 820 821 822 823 823 824 825 825 825 827 827 827 827 828 828 828 829 830 831 832 832 833 834 835 834 835 836 837 837 837 838 838 838 838 838 838 839 839 840 840 841 841 841 842 841
762 764 766 767 768 770 771 773 775 776 777 778 780 782 784 786 788 789 790 791 792 793 795 796 796 797 798 799 799 800 802 803 805 806 807 809 810 812 814 815 816 817 817 818 819 819 820 820 820 821 821 820 821 823 824 825 826 827 827 828 829 830 831 831 831 831 832 833 834 834 834 835 835 835 835 835 836 836 837 837 838 838 838 839 839
758 759 761 762 763 765 767 768 770 771 771 773 775 777 780 781 784 785 786 787 788 789 790 791 792 793 794 795 796 797 798 799 801 802 804 805 807 809 811 812 812 812 812 813 814 814 814 815 815 815 815 815 816 817 819 820 821 822 823 824 824 825 826 826 826 826 827 829 831 830 831 832 833 832 832 832 833 833 834 834 835 835 835 836 837
753 754 756 757 759 761 762 763 765 765 766 768 770 773 775 776 779 781 782 783 784 785 786 786 787 788 790 791 793 794 795 796 797 799 800 802 805 807 808 809 809 809 809 810 810 810 810 810 810 809 808 810 811 811 813 815 817 817 818 818 819 820 821 821 821 822 824 826 827 828 828 829 829 829 829 829 830 830 831 831 832 833 833 833 833
749 750 751 753 755 757 758 759 760 760 761 763 765 767 769 772 774 777 778 779 780 781 782 782 783 784 786 788 789 790 791 792 792 794 796 798 801 802 804 804 804 804 805 806 806 806 806 806 805 804 804 806 806 806 808 811 812 812 812 813 814 815 816 816 817 819 821 822 824 825 825 826 827 826 826 826 827 827 828 828 829 830 830 830 831
744 745 747 749 750 752 753 754 755 755 756 758 760 762 764 767 770 773 774 776 777 778 779 779 780 781 783 784 785 786 786 787 788 790 792 794 796 797 797 797 797 798 798 799 799 799 800 801 800 799 800 801 801 802 805 807 807 807 808 809 811 812 813 814 815 817 818 819 821 822 822 822 823 823 823 824 824 824 825 825 826 828 828 828 828
740 742 743 744 746 747 749 751 751 751 752 754 756 758 760 763 767 769 771 773 774 775 775 776 777 778 780 781 781 782 782 782 784 786 788 790 791 791 791 790 791 792 791 790 791 792 793 794 793 793 794 795 797 798 800 802 803 805 807 808 809 810 811 812 813 814 815 816 817 818 818 819 820 821 821 822 822 822 822 822 823 824 826 826 826
737 738 739 740 742 743 745 746 747 747 749 751 753 754 757 760 764 766 768 770 771 771 772 773 775 776 776 777 778 778 778 779 781 782 784 786 786 785 785 785 787 786 784 784 786 787 787 788 787 788 790 791 792 793 795 796 798 801 803 804 804 805 807 808 809 809 810 811 813 815 815 815 817 818 819 820 820 820 820 820 821 823 824 824 824
732 734 736 737 739 740 741 742 743 744 746 748 750 752 754 758 760 763 765 767 767 767 768 770 772 772 772 772 773 774 774 775 777 779 780 782 781 781 781 782 782 780 777 780 783 783 783 784 784 785 787 787 788 789 790 791 793 795 796 796 797 799 801 801 802 804 806 806 808 810 812 812 813 815 817 819 819 819 819 819 820 821 822 822 822
730 732 734 735 736 737 738 739 740 741 743 745 748 749 752 755 757 759 762 763 762 763 765 767 767 767 767 767 768 769 769 771 774 775 776 777 776 776 777 778 776 772 772 776 779 777 777 778 778 780 780 781 783 784 785 787 789 789 790 790 791 792 793 794 796 799 801 801 802 805 807 807 809 812 813 815 816 816 817 818 819 820 820 821 820